Home   Weather   Mexicali   Past weeks

Flag for Mexico Past Weather in Mexicali, Baja California, Mexico — Yesterday and Last 2 Weeks

Now
45 °F

Clear.


Feels Like: 44 °F
Forecast: 47 / 71 °F
Wind: 3 mph from South

Location: Imperial County Airport

Current Time: Dec 6, 2016 at 2:30:13 am

Latest Report: Dec 6, 2016 at 1:53 am


Visibility: 10 mi

Pressure: 29.86 "Hg

Humidity: 63%

Dew Point: 33 °F

Location of MexicaliLocation

Past Weather in Mexicali — Graph

°F

Mexicali Temperature Yesterday

Maximum temperature yesterday: 69 °F (at 12:53 pm)
Minimum temperature yesterday: 42 °F (at 3:53 am)
Average temperature yesterday: 54 °F

High & Low Weather Summary for the Past Weeks

 TemperatureHumidityPressure
High76 °F (Nov 23, 1:53 pm)83% (Nov 21, 6:53 am)30.23 "Hg (Nov 21, 6:53 am)
Low38 °F (Nov 30, 5:53 am)11% (Nov 25, 2:53 pm)29.73 "Hg (Nov 28, 2:53 pm)
Average57 °F42%29.99 "Hg
* Reported Nov 21 12:53 am — Dec 6 12:53 am, Mexicali, Weather by CustomWeather, © 2016

Note: Actual official high and low records may vary slightly from our data, if they occured in-between our weather recording intervals... More about our weather records

Advertising

Mexicali Weather History for the Previous 24 Hours

Scroll right to see more
 ConditionsComfort  
Time TempWeatherWind HumidityBarometerVisibility
12:53 am
Tue, Dec 6
46 °FClear.3 mph68%29.87 "Hg10 mi
11:53 pm
Mon, Dec 5
45 °FClear.5 mph74%29.86 "Hg10 mi
10:53 pm50 °FClear.No wind59%29.88 "Hg10 mi
9:53 pm50 °FClear.No wind61%29.89 "Hg10 mi
8:53 pm50 °FClear.No wind66%29.88 "Hg10 mi
7:53 pm54 °FClear.No wind57%29.87 "Hg10 mi
6:53 pm56 °FClear.5 mph49%29.87 "Hg10 mi
5:53 pm60 °FClear.No wind41%29.86 "Hg10 mi
4:53 pm63 °FClear.3 mph37%29.85 "Hg10 mi
3:53 pm67 °FSunny.3 mph35%29.85 "Hg10 mi
2:53 pm69 °FSunny.7 mph32%29.85 "Hg10 mi
1:53 pm69 °FSunny.No wind33%29.85 "Hg10 mi
12:53 pm69 °FSunny.5 mph35%29.86 "Hg10 mi
11:53 am66 °FSunny.3 mph45%29.89 "Hg10 mi
10:53 am63 °FSunny.5 mph40%29.91 "Hg10 mi
9:53 am60 °FSunny.7 mph32%29.92 "Hg10 mi
8:53 am55 °FSunny.7 mph35%29.91 "Hg10 mi
7:53 am47 °FSunny.No wind42%29.89 "Hg10 mi
6:53 am42 °FSunny.No wind55%29.88 "Hg10 mi
5:53 am42 °FClear.No wind49%29.86 "Hg10 mi
4:53 am43 °FClear.3 mph47%29.85 "Hg10 mi
3:53 am42 °FClear.No wind57%29.85 "Hg10 mi
2:53 am45 °FClear.No wind38%29.87 "Hg10 mi
Weather by CustomWeather, © 2016

See weather overviewHow to use our weather pages